TimeCST,TemperatureF,Dew PointF,Humidity,Sea Level PressureIn,VisibilityMPH,Wind Direction,Wind SpeedMPH,Gust SpeedMPH,PrecipitationIn,Events,Conditions,WindDirDegrees,DateUTC
12:53 AM,36.0,12.0,37,30.04,-9999.0,NNE,6.9,-,N/A,,Unknown,20,2012-12-11 06:53:00
1:53 AM,35.1,10.9,37,30.02,-9999.0,North,4.6,-,N/A,,Unknown,10,2012-12-11 07:53:00
2:53 AM,33.1,10.0,38,30.03,-9999.0,North,4.6,-,N/A,,Unknown,350,2012-12-11 08:53:00
3:53 AM,33.1,9.0,37,30.03,-9999.0,North,5.8,-,N/A,,Unknown,10,2012-12-11 09:53:00
4:53 AM,30.0,8.1,40,30.03,-9999.0,Calm,Calm,-,N/A,,Unknown,0,2012-12-11 10:53:00
5:53 AM,30.9,8.1,38,30.04,-9999.0,Calm,Calm,-,N/A,,Unknown,0,2012-12-11 11:53:00
6:53 AM,32.0,8.1,37,30.06,-9999.0,Calm,Calm,-,N/A,,Unknown,0,2012-12-11 12:53:00
7:53 AM,28.9,7.0,40,30.09,-9999.0,Calm,Calm,-,N/A,,Unknown,0,2012-12-11 13:53:00
8:53 AM,44.1,10.9,26,30.08,-9999.0,Calm,Calm,-,N/A,,Unknown,0,2012-12-11 14:53:00
9:53 AM,46.9,12.9,25,30.09,-9999.0,Calm,Calm,-,N/A,,Unknown,0,2012-12-11 15:53:00
10:53 AM,50.0,14.0,24,30.09,-9999.0,Variable,3.5,-,N/A,,Unknown,0,2012-12-11 16:53:00
11:53 AM,54.0,14.0,21,30.07,-9999.0,Calm,Calm,-,N/A,,Unknown,0,2012-12-11 17:53:00
12:53 PM,55.9,14.0,19,30.05,-9999.0,North,-9999.0,-,N/A,,Unknown,0,2012-12-11 18:53:00
1:53 PM,61.0,14.0,16,30.01,-9999.0,East,5.8,-,N/A,,Unknown,100,2012-12-11 19:53:00
2:53 PM,63.0,15.1,16,29.99,-9999.0,ESE,8.1,-,N/A,,Unknown,120,2012-12-11 20:53:00
3:53 PM,62.1,14.0,15,29.99,-9999.0,ESE,4.6,-,N/A,,Unknown,110,2012-12-11 21:53:00
4:53 PM,61.0,14.0,16,30.01,-9999.0,SSE,5.8,-,N/A,,Unknown,150,2012-12-11 22:53:00
5:53 PM,55.9,12.9,18,30.03,-9999.0,East,5.8,-,N/A,,Unknown,100,2012-12-11 23:53:00
6:53 PM,50.0,12.9,23,30.06,-9999.0,East,3.5,-,N/A,,Unknown,90,2012-12-12 00:53:00
7:53 PM,46.9,12.9,25,30.10,-9999.0,East,3.5,-,N/A,,Unknown,80,2012-12-12 01:53:00
8:53 PM,46.0,15.1,29,30.11,-9999.0,Calm,Calm,-,N/A,,Unknown,0,2012-12-12 02:53:00
9:53 PM,41.0,15.1,35,30.13,-9999.0,Calm,Calm,-,N/A,,Unknown,0,2012-12-12 03:53:00
10:53 PM,39.0,15.1,38,30.13,-9999.0,Calm,Calm,-,N/A,,Unknown,0,2012-12-12 04:53:00
11:53 PM,39.0,16.0,39,30.13,-9999.0,NW,3.5,-,N/A,,Unknown,320,2012-12-12 05:53:00